Weather History for Lamoni, IA

Change the Weather History Date:

Tuesday, November 4, 2014

  Actual Average Record
Temperature  
Mean Temperature 48 °F 45 °F  
Max Temperature 54 °F 55 °F 75 °F (1978)
Min Temperature 41 °F 36 °F 3 °F (1991)
Degree Days  
Heating Degree Days 17 20  
Month to date heating degree days 69 76  
Since 1 July heating degree days 495 560  
Cooling Degree Days 0 0  
Month to date cooling degree days 0 0  
Year to date cooling degree days 907 946  
Moisture  
Dew Point 38 °F    
Average Humidity 70    
Maximum Humidity 89    
Minimum Humidity 50    
Precipitation  
Precipitation 0.00 in 0.13 in 0.53 in (1990)
Month to date precipitation 0.02 0.49  
Sea Level Pressure  
Sea Level Pressure 30.11 in    
Wind  
Wind Speed 11 mph (West)    
Max Wind Speed 22 mph    
Max Gust Speed 31 mph    
Visibility 10 miles    
Events      
T = Trace of Precipitation, MM = Missing Value Source: NWS Daily Summary

Daily Weather History Graph

Daily Weather History Graph

Search for Another Location

Airport:

Trip Planner

Search our weather history database for the weather conditions in past years. The results will help you decide how hot, cold, wet, or windy it might be!

Date:

Astronomy

Nov. 04, 2014 Rise Set
Actual Time 6:49 AM CST 5:08 PM CST
Civil Twilight 6:20 AM CST 5:37 PM CST
Nautical Twilight 5:48 AM CST 6:09 PM CST
Astronomical Twilight 5:16 AM CST 6:41 PM CST
Moon 3:56 PM CST (11/4) 4:07 AM CST (11/4)
Length of Visible Light 11h 16m
Length of Day
10h 19m
Waxing Gibbous, 94% of the Moon is Illuminated
Nov 4
Waxing Gibbous
Nov 6
Full
Nov 14
Last Quarter
Nov 22
New
Nov 29
First Quarter

Hourly Weather History & Observations

Time (CST) Temp. Windchill Dew Point Humidity Pressure Visibility Wind Dir Wind Speed Gust Speed Precip Events Conditions
12:53 AM 50.0 °F - 45.0 °F 83% 29.99 in 10.0 mi WNW 17.3 mph - N/A   Overcast
1:14 AM 50.0 °F - 43.0 °F 77% 30.00 in 10.0 mi WNW 12.7 mph 31.1 mph N/A   Overcast
1:53 AM 48.0 °F - 42.1 °F 80% 30.03 in 10.0 mi WNW 16.1 mph - N/A   Mostly Cloudy
2:15 AM 46.9 °F - 41.0 °F 80% 30.03 in 10.0 mi NW 15.0 mph - N/A   Partly Cloudy
2:53 AM 46.0 °F 39.6 °F 39.0 °F 76% 30.04 in 10.0 mi NW 15.0 mph - N/A   Clear
3:53 AM 45.0 °F 39.7 °F 37.9 °F 76% 30.04 in 10.0 mi WNW 10.4 mph - N/A   Clear
4:53 AM 44.1 °F 38.6 °F 37.9 °F 79% 30.07 in 10.0 mi NW 10.4 mph - N/A   Clear
5:53 AM 43.0 °F 38.8 °F 37.9 °F 82% 30.10 in 10.0 mi West 6.9 mph - N/A   Clear
6:53 AM 43.0 °F 37.7 °F 37.9 °F 82% 30.10 in 10.0 mi WNW 9.2 mph - N/A   Clear
7:53 AM 43.0 °F 37.7 °F 39.0 °F 86% 30.13 in 10.0 mi WNW 9.2 mph - N/A   Clear
8:53 AM 45.0 °F 39.3 °F 39.9 °F 82% 30.14 in 10.0 mi WNW 11.5 mph - N/A   Clear
9:53 AM 46.9 °F - 39.0 °F 74% 30.16 in 10.0 mi WNW 11.5 mph - N/A   Clear
10:53 AM 48.9 °F - 36.0 °F 61% 30.16 in 10.0 mi WNW 12.7 mph - N/A   Clear
11:53 AM 50.0 °F - 36.0 °F 59% 30.16 in 10.0 mi West 9.2 mph - N/A   Clear
12:53 PM 51.1 °F - 35.1 °F 54% 30.15 in 10.0 mi West 11.5 mph - N/A   Clear
1:53 PM 52.0 °F - 35.1 °F 53% 30.13 in 10.0 mi WSW 10.4 mph - N/A   Clear
2:53 PM 53.1 °F - 35.1 °F 50% 30.12 in 10.0 mi WSW 11.5 mph - N/A   Clear
3:53 PM 53.1 °F - 35.1 °F 50% 30.13 in 9.0 mi WSW 10.4 mph - N/A   Clear
4:53 PM 50.0 °F - 35.1 °F 57% 30.13 in 10.0 mi SW 9.2 mph - N/A   Clear
5:53 PM 48.0 °F - 35.1 °F 61% 30.14 in 10.0 mi SW 10.4 mph - N/A   Clear
6:53 PM 46.0 °F 40.6 °F 36.0 °F 68% 30.15 in 10.0 mi SW 11.5 mph - N/A   Clear
7:53 PM 45.0 °F 38.9 °F 36.0 °F 71% 30.15 in 10.0 mi SW 12.7 mph - N/A   Clear
8:53 PM 44.1 °F 38.6 °F 36.0 °F 73% 30.15 in 10.0 mi SW 10.4 mph - N/A   Clear
9:53 PM 43.0 °F 37.2 °F 35.1 °F 74% 30.14 in 10.0 mi SW 10.4 mph - N/A   Clear
10:53 PM 42.1 °F 35.7 °F 35.1 °F 76% 30.14 in 10.0 mi SW 11.5 mph - N/A   Clear
11:53 PM 42.1 °F 36.1 °F 35.1 °F 76% 30.15 in 10.0 mi SW 10.4 mph - N/A   Clear